Regional Weather Roundup
Issued by NWS Raleigh/Durham, NC

Home | Current Version | Previous Version | Text Only | Print | Product List | Glossary On
Versions: 1 2 3 4 5 6 7 8 9 10 11 12 13 14 15 16 17 18 19 20 21 22 23 24 25 26 27 28 29 30 31 32 33 34 35 36 37 38 39 40 41 42 43 44 45 46 47 48 49 50
000
ASUS42 KRAH 221910
RWRRAH
NORTH CAROLINA WEATHER ROUNDUP
NATIONAL WEATHER SERVICE RALEIGH NC
300 PM EDT FRI AUG 22 2014

NOTE: "FAIR" INDICATES FEW OR NO CLOUDS BELOW 12,000 FEET WITH NO
SIGNIFICANT WEATHER AND/OR OBSTRUCTIONS TO VISIBILITY.

NCZ001-053-055-056-065-067-222000-
WESTERN NORTH CAROLINA

CITY           SKY/WX    TMP DP  RH WIND       PRES   REMARKS
ASHEVILLE      SUNNY     89  64  43 NW9       30.12F
JEFFERSON      MOSUNNY   77  62  59 W8        30.17F
MORGANTON      MOSUNNY   92  63  37 W6        30.08F
HICKORY        MOSUNNY   90  68  48 CALM      30.04F
RUTHERFORDTON  SUNNY     91  69  48 SW8       30.05F HX  95
MOUNT AIRY     CLOUDY    83  74  73 SW3       30.06F
BOONE          MOSUNNY   78  62  57 NW10G20   30.18F
$$

NCZ021-022-025-041-071-084-088-222000-
CENTRAL NORTH CAROLINA

CITY           SKY/WX    TMP DP  RH WIND       PRES   REMARKS
CHARLOTTE      PTSUNNY   92  68  45 VRB6      30.02F HX  96
GREENSBORO     CLOUDY    89  71  55 NW7       30.02F HX  95
WINSTON-SALEM  CLOUDY    88  67  49 NW13G18   30.04F
RALEIGH-DURHAM PTSUNNY   90  70  51 W7        30.00F HX  95
FORT BRAGG     MOSUNNY   94  69  43 CALM      29.98F HX  99
FAYETTEVILLE   MOSUNNY   95  66  38 VRB5      29.97F HX  98
BURLINGTON     PTSUNNY   92  70  48 NW10      30.00F HX  97
LAURINBURG     PTSUNNY   95  69  42 VRB5      29.99F HX 100
$$

NCZ011-015-027-028-043-044-047-080-103-222000-
NORTHEASTERN NORTH CAROLINA

CITY           SKY/WX    TMP DP  RH WIND       PRES   REMARKS
ROCKY MT-WILSO PTSUNNY   89  70  53 NW9       29.98F
GREENVILLE     PTSUNNY   90  73  58 N5        29.98F HX  98
WASHINGTON     MOSUNNY   88  72  58 W6        29.96F HX  95
ELIZABETH CITY LGT RAIN  85  70  60 NW6       29.94F
MANTEO         MOSUNNY   84  70  61 NW7       29.94F
CAPE HATTERAS  MOSUNNY   85  75  72 W7G16     29.94F
$$

NCZ078-087-090-091-093-098-101-222000-
SOUTHEASTERN NORTH CAROLINA

CITY           SKY/WX    TMP DP  RH WIND       PRES   REMARKS
LUMBERTON      MOSUNNY   96  69  41 CALM      29.97F HX 102
GOLDSBORO      MOSUNNY   91  77  64 NW8       29.95F HX 104
KINSTON        MOSUNNY   90  72  55 NW10      29.98F HX  96
KENANSVILLE    MOSUNNY   90  70  51 N7        29.99S HX  95
NEW BERN       MOSUNNY   94  73  50 NW9G17    29.97F HX 103
CHERRY POINT   MOSUNNY   94  72  48 NW14      29.96F HX 102
BEAUFORT       MOSUNNY   90  77  65 SW12      29.95F HX 103
JACKSONVILLE   MOSUNNY   94  69  44 NW9       29.96F HX  99
WILMINGTON     MOSUNNY   95  72  47 W13       29.97F HX 103
$$



USA.gov is the U.S. government's official web portal to all federal, state and local government web resources and services.